Temp_Advection
nan nan nan nan nan nan nan nan nan nan nan nan nan nan nan nan nan nan nan nan nan nan nan nan nan nan nan nan nan nan nan nan nan nan nan nan nan nan nan nan nan nan nan nan nan nan nan nan nan nan nan nan nan nan nan nan nan nan nan nan nan nan nan nan nan nan nan nan nan
nan 4 5 5 5 4 3 2 1 1 1 0 0 1 1 1 1 1 1 1 1 1 2 2 1 1 1 1 1 1 1 1 1 1 1 1 1 1 1 1 1 1 0 0 1 0 0 1 0 0 0 0 0 0 1 1 1 1 0 0 1 1 1 0 1 1 1 1 nan
nan 5 6 5 4 4 3 2 1 1 1 1 1 1 1 1 1 1 1 1 2 2 1 1 1 1 1 1 1 1 1 1 1 1 1 1 1 1 1 1 1 1 1 0 1 1 1 1 0 0 0 0 0 0 1 1 1 0 0 0 1 1 0 0 1 1 1 1 nan
nan 4 4 4 4 3 3 2 2 1 1 1 1 1 1 1 1 1 1 1 2 1 1 1 1 1 1 1 1 1 1 1 1 1 1 1 1 1 1 1 1 1 1 1 1 1 1 1 0 0 0 0 0 0 1 1 1 0 0 0 1 1 0 0 1 1 1 1 nan
nan 3 4 4 5 5 4 4 3 2 2 2 1 1 1 1 1 1 1 1 1 1 2 2 2 1 1 1 1 1 1 1 1 1 1 1 1 1 1 1 1 1 1 1 1 1 1 1 0 0 0 0 0 0 1 1 1 0 0 0 1 1 1 0 0 1 1 1 nan
nan 3 4 5 5 5 5 4 3 3 2 1 1 1 1 1 1 1 1 1 1 2 2 2 1 1 1 1 1 1 1 1 1 1 1 1 1 1 1 1 1 1 1 1 1 1 1 0 0 0 0 0 0 0 1 1 1 0 0 0 1 1 1 0 0 1 1 0 nan
nan 3 4 5 5 5 5 4 4 3 2 1 1 1 1 1 1 1 1 1 1 2 2 1 1 1 1 1 1 1 1 1 1 1 1 1 1 1 1 1 1 1 1 1 1 1 1 1 0 0 0 0 0 0 1 1 0 0 0 0 1 1 1 1 1 1 1 0 nan
nan 3 3 4 5 5 5 4 4 3 2 1 1 1 1 1 1 1 1 1 1 1 1 1 1 1 1 1 1 1 1 1 1 1 1 1 1 1 1 1 1 1 1 1 1 1 1 1 0 0 0 0 0 0 1 1 0 0 0 0 1 1 1 1 1 1 0 0 nan
nan 2 3 4 4 5 5 5 4 3 2 1 1 1 1 2 1 1 1 1 1 1 2 1 1 1 1 1 1 1 1 1 1 1 1 1 1 1 1 1 1 1 1 1 1 1 1 1 0 0 0 0 0 0 0 1 0 -0 -0 0 0 1 1 1 1 1 1 0 nan
nan 2 3 3 4 5 5 5 4 3 2 2 1 2 2 2 1 1 1 1 1 1 1 1 1 1 1 1 0 1 1 1 1 1 1 1 0 1 1 1 1 1 1 1 1 1 1 1 0 0 1 1 0 0 0 0 0 -0 -0 0 0 0 1 1 1 1 1 0 nan
nan 3 3 3 4 5 5 5 4 3 3 2 2 1 1 1 1 1 1 1 1 1 1 1 1 1 1 0 0 1 1 1 1 1 1 1 0 1 1 1 1 1 1 1 1 1 1 0 0 0 1 1 1 0 0 0 0 0 -0 0 0 0 0 1 1 1 1 0 nan
nan 2 3 3 4 4 5 4 4 3 3 2 1 1 1 1 1 1 1 1 1 1 1 1 1 1 1 0 1 1 1 1 0 0 0 0 0 1 1 1 1 1 1 1 1 1 1 0 1 1 1 1 1 0 0 0 0 -0 -0 0 0 0 0 1 1 1 1 1 nan
nan 3 2 3 3 3 4 4 4 3 3 2 2 1 2 1 1 1 1 1 1 1 1 1 1 1 1 1 1 1 1 1 0 0 0 0 0 1 1 1 1 1 1 1 1 1 1 0 1 0 0 1 1 1 0 0 0 -0 -0 0 0 0 0 1 1 1 1 1 nan
nan 2 2 2 2 3 3 3 4 3 3 2 2 2 2 1 1 1 1 1 1 1 1 2 1 1 1 1 1 1 1 0 0 0 0 0 0 0 1 1 1 1 1 1 1 1 1 1 1 0 0 0 1 1 1 0 0 0 0 0 0 0 0 1 1 1 1 1 nan
nan 2 2 2 2 2 2 3 3 3 3 3 2 2 2 1 1 1 0 1 1 1 1 1 1 1 1 1 1 1 0 0 0 0 0 0 0 0 1 1 1 1 1 1 1 1 1 1 1 1 0 0 0 1 1 0 0 0 0 0 0 0 0 1 1 1 1 1 nan
nan 2 3 2 2 2 2 2 3 3 3 3 3 3 2 2 1 1 1 1 1 1 1 1 1 1 1 2 1 0 0 0 0 0 0 0 0 0 1 1 1 1 1 1 1 1 1 1 1 1 0 0 0 0 0 0 0 0 0 0 0 0 0 0 0 1 1 0 nan
nan 2 3 2 2 2 2 3 3 3 3 3 3 3 2 2 1 1 0 1 1 1 1 1 1 2 2 1 0 0 0 1 0 0 0 0 0 0 0 1 1 1 1 1 1 1 1 1 1 1 0 0 0 0 0 0 0 0 0 0 0 0 0 0 0 0 0 0 nan
nan 2 2 2 2 2 2 3 3 3 3 3 3 3 3 2 1 1 1 1 1 1 1 1 2 2 2 1 -0 0 1 1 0 0 0 0 0 0 0 1 1 1 1 1 1 1 1 1 1 1 0 0 0 0 0 0 0 0 0 0 1 1 0 0 0 0 0 0 nan
nan 2 2 2 2 3 3 3 3 3 4 4 4 3 3 2 1 1 1 1 1 1 1 2 2 2 1 -0 0 0 1 1 0 0 0 0 0 0 0 1 1 1 1 1 1 1 1 1 1 1 0 0 0 0 0 0 0 0 0 0 0 1 1 0 1 0 0 0 nan
nan 1 1 2 3 3 3 3 3 3 4 4 4 3 3 2 1 1 1 1 1 1 2 2 3 2 0 -0 0 1 1 1 1 0 0 0 -0 -0 0 1 1 1 1 1 1 1 1 1 1 1 1 0 0 0 0 0 0 0 0 0 0 1 1 1 0 0 0 0 nan
nan 1 2 3 4 3 3 3 3 3 3 3 3 3 2 2 1 1 0 1 1 2 2 3 2 1 -0 -0 0 1 1 1 1 1 0 0 -0 -0 0 1 1 1 1 1 1 1 1 1 1 1 0 0 0 0 0 0 0 0 0 0 0 1 1 0 0 -0 -0 0 nan
nan 3 3 3 3 3 3 3 3 3 2 3 3 3 2 2 1 1 1 1 1 2 3 3 2 0 -0 -0 1 1 1 1 1 0 0 -0 -0 -0 0 1 1 1 1 1 1 1 1 1 1 1 0 0 0 0 0 0 0 0 0 0 0 0 0 0 -0 -0 -0 0 nan
nan 3 3 3 2 3 2 2 2 2 2 2 2 2 2 2 1 1 1 1 2 2 3 2 1 0 -0 0 1 1 1 1 0 0 -0 -0 -0 -0 0 0 1 1 1 1 1 1 1 1 1 0 0 0 0 0 0 0 0 0 0 0 0 0 0 0 0 0 0 0 nan
nan 2 2 2 3 2 2 2 2 2 2 2 2 2 2 2 1 1 1 1 2 3 3 2 1 -0 -0 0 1 1 1 1 0 0 -0 -0 -0 -0 0 0 1 1 1 1 1 1 1 0 1 1 1 1 0 0 0 0 0 0 0 0 0 0 0 0 0 0 0 0 nan
nan 2 2 2 3 3 3 2 1 1 1 2 2 2 2 2 1 1 1 2 3 3 2 1 0 -0 -0 0 1 1 1 1 0 -0 -0 -0 -0 -0 0 1 1 1 1 1 1 1 1 0 0 0 0 1 0 0 0 0 0 0 0 0 -0 -0 -1 -1 -0 0 0 0 nan
nan 2 2 3 3 3 3 2 2 2 2 2 2 2 2 2 1 1 2 2 3 3 2 1 0 -0 0 1 1 1 1 0 0 -0 -0 -0 -0 -0 0 1 1 1 1 1 1 1 1 1 0 0 0 0 -0 -0 -1 -0 0 0 0 -0 -0 -1 -1 -2 -2 -1 -1 -0 nan
nan 2 2 3 3 3 3 3 3 2 2 2 2 2 2 2 2 2 3 3 3 2 2 1 0 -0 0 1 1 1 0 0 0 -0 -0 -0 -0 -0 0 1 1 1 1 1 1 1 1 1 1 1 0 0 -0 -0 -0 -1 -1 -0 -0 -0 -1 -0 -1 -1 -2 -2 -1 -1 nan
nan 2 2 2 2 2 3 3 3 2 2 2 2 2 2 2 2 3 3 3 2 2 1 0 -0 -0 0 0 0 0 0 0 0 0 -0 -0 -0 0 0 1 1 1 1 1 1 1 1 1 1 1 1 1 1 0 0 -0 -0 -0 -0 0 -0 -0 -0 -0 -0 -0 -1 -1 nan
nan 3 3 2 2 2 3 3 2 2 2 2 2 2 2 3 3 3 3 2 2 1 1 0 -0 -0 -0 0 0 1 0 0 0 0 -0 -0 -0 -0 0 1 1 1 1 1 1 1 1 1 1 1 1 1 1 1 0 0 0 0 0 0 0 0 -0 -0 -0 -0 -0 -0 nan
nan 4 3 3 2 2 2 2 2 3 3 3 2 2 3 3 3 3 3 2 2 1 1 0 -0 -1 -0 0 1 1 0 0 0 0 -0 -0 -0 -0 0 1 1 1 1 1 1 1 1 1 1 1 1 2 1 1 0 0 0 0 0 0 0 0 -0 -0 -0 -1 -0 -0 nan
nan 4 4 3 3 2 2 2 3 3 3 2 2 2 3 3 3 3 2 2 2 1 0 -0 -1 -1 -0 1 1 0 0 0 0 -0 -0 -0 -0 0 1 1 1 1 1 1 1 0 1 1 1 1 1 1 1 1 1 0 0 0 0 0 0 0 -0 -0 -0 -0 -0 0 nan
nan 4 4 3 3 2 2 3 3 2 2 2 2 3 3 3 3 3 2 2 1 0 -0 -1 -1 -0 0 0 0 0 0 0 0 -0 -0 -0 -0 0 1 1 1 1 1 1 0 0 1 1 1 1 1 2 1 1 0 0 0 0 0 0 0 0 -0 -0 0 0 0 0 nan
nan 4 4 4 3 3 3 2 2 2 2 2 3 3 2 2 3 3 2 2 1 -0 -1 -1 -1 -0 0 0 0 0 0 0 0 0 -0 -0 0 0 0 1 1 1 1 1 0 0 1 1 1 1 2 2 1 1 0 0 -0 -0 -0 -0 -0 0 0 1 1 1 0 -0 nan
nan 3 4 4 4 3 2 2 2 2 3 3 3 2 2 2 2 2 2 1 -0 -1 -1 -1 -0 0 0 1 1 0 0 0 0 0 -0 0 0 0 0 0 1 1 1 1 1 0 1 1 1 1 2 2 1 0 -0 -0 -0 -0 -0 -0 0 1 1 1 1 1 0 -0 nan
nan 3 3 3 3 3 3 2 3 3 2 2 2 2 2 2 2 1 1 0 -0 -1 -1 -0 -0 0 1 1 0 0 0 -0 -0 -0 -0 0 0 -0 -0 0 1 1 1 1 0 0 1 1 1 1 2 1 1 0 -0 -0 -1 -1 -0 0 1 1 1 1 1 0 0 -0 nan
nan 3 3 3 3 3 3 3 3 2 2 1 1 1 1 1 1 1 1 0 -0 -0 -0 -0 0 0 0 0 0 0 -0 -0 -0 0 0 0 -0 -0 -0 0 1 1 1 1 0 0 1 1 1 1 1 1 0 -0 -0 -1 -1 -0 0 1 1 0 1 1 1 0 0 -0 nan
nan 2 3 3 3 3 3 3 2 2 1 1 1 1 1 1 1 1 1 0 -0 -1 -1 -0 -0 -0 0 0 0 0 0 0 0 0 0 -0 -0 -0 0 0 1 1 1 1 0 0 1 1 1 1 1 1 -0 -0 -0 -0 -0 0 0 0 1 1 1 1 1 0 -0 -0 nan
nan 2 3 3 3 2 2 2 2 1 1 1 1 1 1 1 2 1 1 0 -1 -1 -1 -0 -0 -0 0 0 0 0 0 0 0 0 0 -0 -0 -0 0 0 1 1 1 1 0 0 1 1 1 1 1 0 -0 -1 -1 -1 -0 0 0 1 1 1 1 1 0 0 -0 -0 nan
nan 2 3 2 2 2 2 2 1 1 2 1 1 1 1 1 2 1 1 0 -1 -1 -1 -0 -0 0 1 1 1 0 0 0 0 0 -0 -0 0 0 0 0 1 1 1 1 1 0 1 1 1 1 1 0 -0 -1 -1 -1 -1 -0 0 1 1 1 1 1 0 0 0 -0 nan
nan 2 2 2 2 2 2 1 1 2 2 2 2 1 1 1 2 2 1 0 -0 -1 -1 -0 0 1 1 1 1 0 0 0 0 -0 -0 -0 0 0 -0 0 0 1 1 1 1 0 1 1 1 1 1 0 -0 -0 -0 -0 -0 -0 0 1 1 0 0 0 0 0 0 -0 nan
nan nan nan nan nan nan nan nan nan nan nan nan nan nan nan nan nan nan nan nan nan nan nan nan nan nan nan nan nan nan nan nan nan nan nan nan nan nan nan nan nan nan nan nan nan nan nan nan nan nan nan nan nan nan nan nan nan nan nan nan nan nan nan nan nan nan nan nan nan
Wind_Speed
45 45 46 46 47 47 47 46 45 44 43 42 40 39 37 36 35 34 33 33 32 32 31 30 29 28 26 26 25 26 26 25 25 24 23 23 22 22 21 21 21 22 22 22 22 22 23 23 23 24 24 24 24 23 23 22 22 22 23 23 23 23 24 25 25 26 27 28 29
44 44 44 45 46 47 47 47 46 45 44 42 41 39 38 37 35 35 34 33 32 32 31 30 29 28 27 26 26 26 26 26 25 24 24 23 22 22 21 21 22 22 22 22 23 23 23 23 24 24 24 24 24 23 23 22 22 22 23 23 23 23 24 25 25 25 26 27 28
42 42 44 45 46 47 47 47 47 46 44 43 41 40 38 37 36 35 34 33 32 32 31 30 29 28 27 27 27 26 26 26 25 24 24 23 22 22 22 22 22 22 22 23 23 23 23 23 24 24 24 24 24 23 23 22 22 22 23 23 23 24 24 24 25 25 26 26 27
40 41 42 43 44 45 46 46 46 45 44 43 41 40 39 37 36 35 34 33 32 32 31 31 30 29 28 27 27 26 26 25 25 24 24 23 23 22 22 22 22 22 22 23 23 23 23 23 24 24 24 24 24 23 23 22 22 22 23 23 23 24 24 25 25 25 25 26 27
39 39 40 40 41 43 43 44 45 45 44 42 41 40 39 38 36 35 34 33 33 32 31 31 30 29 28 27 27 26 26 25 25 24 23 23 23 22 22 22 22 23 23 23 23 23 23 23 24 24 24 24 24 23 23 22 22 23 23 23 24 24 24 25 25 25 26 26 27
38 38 38 39 40 41 42 43 44 44 44 43 42 41 40 38 36 35 34 33 33 32 31 30 30 29 28 28 27 26 26 25 24 24 23 23 22 22 22 22 23 23 23 23 23 23 23 24 24 24 24 24 24 23 23 22 23 23 24 24 24 24 25 25 25 25 26 26 27
37 37 37 38 39 40 41 42 43 44 44 44 43 42 40 38 37 35 34 33 32 32 31 31 30 29 28 28 27 26 25 25 24 23 23 23 23 22 22 22 23 23 23 23 23 23 23 24 24 25 25 24 24 23 23 23 23 23 24 24 24 24 24 25 25 25 26 27 27
39 38 38 37 38 39 40 42 43 44 44 44 44 42 40 38 36 35 34 33 33 32 32 31 30 29 28 27 27 26 25 24 23 23 23 23 23 22 22 23 23 23 23 23 23 23 23 24 24 25 25 24 24 24 23 23 23 24 24 25 24 24 24 25 25 25 26 26 27
40 39 38 38 37 38 39 41 42 44 45 45 43 42 40 38 37 35 35 34 33 33 32 31 30 29 28 27 26 25 24 23 22 22 23 23 23 22 23 23 23 23 23 23 23 23 23 24 25 25 25 25 24 24 23 23 24 24 25 25 25 25 25 25 25 25 26 26 27
41 39 38 38 37 37 38 39 41 43 45 45 43 42 40 38 37 36 35 34 33 33 32 31 30 29 28 27 26 25 23 22 21 22 23 23 23 23 23 23 23 23 23 23 23 23 24 24 25 25 25 24 24 24 23 23 24 24 25 25 25 25 25 25 25 25 26 26 27
40 39 38 38 37 37 37 39 41 42 44 45 44 42 41 39 37 36 35 35 34 33 32 31 30 29 28 27 25 24 22 21 22 23 23 23 23 23 23 23 23 23 23 23 23 23 24 24 25 25 25 24 24 24 24 24 24 25 25 25 25 25 25 25 25 25 26 26 27
41 40 39 38 37 37 37 38 40 41 43 44 44 43 41 40 38 37 36 35 35 34 33 31 30 29 28 26 25 22 21 20 22 23 23 23 23 23 23 24 23 23 23 23 23 23 24 25 25 25 25 24 24 24 24 24 24 25 25 25 25 26 26 25 25 25 25 25 26
41 40 39 38 37 37 37 38 39 40 42 43 44 43 42 40 39 38 37 36 35 34 33 31 30 29 28 26 23 21 20 21 23 23 23 23 23 23 24 24 24 23 23 23 23 24 24 25 25 25 25 24 24 24 24 24 25 25 26 26 26 26 25 25 24 24 24 25 25
41 41 40 38 37 37 37 37 38 39 41 42 43 43 42 41 39 38 37 36 35 34 33 31 30 29 27 25 22 20 20 22 23 23 23 23 23 24 24 24 24 23 23 23 23 24 24 25 25 25 25 25 24 24 24 24 25 25 26 26 26 26 25 25 24 24 24 24 24
41 41 40 39 38 37 37 37 38 39 40 41 42 43 42 41 40 39 38 37 35 34 33 31 30 28 26 23 21 20 21 23 23 23 23 23 23 24 24 24 24 23 23 23 24 24 25 25 25 25 25 25 24 24 24 24 25 25 26 26 26 26 25 25 24 23 23 23 23
41 41 40 39 38 37 36 36 37 38 39 40 42 42 42 42 41 39 38 37 35 34 33 31 30 28 25 22 21 21 22 23 23 23 23 23 23 24 24 24 24 24 23 24 24 25 25 25 25 25 25 25 24 24 24 24 25 25 25 26 26 26 25 24 24 23 22 22 22
41 41 40 40 38 37 36 36 36 37 38 40 41 42 42 42 41 40 38 37 35 34 32 31 29 27 24 22 21 22 23 23 23 23 23 23 23 24 24 24 24 24 24 24 25 25 25 25 25 25 25 24 24 24 24 24 25 25 25 25 25 25 25 24 23 22 22 22 22
41 41 40 40 38 37 36 35 36 37 38 39 40 41 42 42 41 40 38 37 35 34 32 30 28 26 23 22 22 23 23 23 23 23 23 23 23 24 24 25 25 25 25 25 25 25 25 25 24 24 24 24 24 24 24 25 25 25 25 25 25 25 24 24 22 22 21 22 22
41 40 40 40 38 37 36 35 35 36 37 38 39 41 41 42 41 40 38 37 35 33 32 30 27 25 23 22 23 24 24 23 23 23 23 23 23 24 25 25 25 25 25 25 25 25 25 25 24 24 24 24 24 24 24 24 25 25 25 25 25 25 24 23 22 21 21 22 22
40 40 39 39 38 37 36 35 35 35 36 37 39 40 41 41 40 39 38 37 35 33 31 29 27 25 23 23 24 24 24 23 23 23 23 23 24 24 25 25 25 25 25 25 25 25 25 24 24 24 24 24 24 24 24 24 24 25 25 25 25 25 24 23 22 21 21 22 22
39 39 39 38 38 37 36 35 35 35 36 37 38 40 40 41 40 39 38 36 34 32 30 28 27 25 24 24 25 25 24 23 23 23 23 23 24 24 25 26 26 26 26 26 25 25 25 24 24 24 23 23 24 24 24 24 24 25 25 25 25 25 24 23 22 21 21 21 21
38 38 38 38 38 37 36 35 35 35 36 37 38 39 40 40 40 39 37 36 34 32 30 28 27 25 25 25 25 25 24 23 23 23 23 23 24 24 25 26 26 26 26 26 25 25 24 24 24 23 23 23 23 23 23 24 24 25 25 25 25 24 23 22 22 21 21 20 20
37 37 38 38 37 37 36 35 35 35 36 36 37 38 39 40 39 38 37 35 34 32 30 28 27 26 25 26 26 25 24 23 23 23 23 23 24 24 25 26 27 26 26 26 25 25 24 24 23 23 23 23 23 23 23 24 25 25 25 25 25 24 23 22 21 21 20 19 19
37 37 37 37 37 36 35 35 35 35 35 36 37 38 39 39 39 38 37 35 34 32 30 29 27 26 26 26 26 25 24 24 23 23 23 23 24 24 25 26 27 27 26 25 25 24 24 24 23 23 22 22 23 23 24 24 25 25 25 25 24 24 23 22 21 21 20 19 20
36 36 36 36 36 35 35 34 34 34 34 35 35 37 38 39 39 38 37 35 33 32 30 29 28 27 27 27 27 26 25 24 23 23 23 23 23 24 26 26 27 27 26 25 25 24 24 24 23 23 22 22 23 23 24 25 25 25 25 25 25 24 24 23 22 21 20 20 21
36 36 36 36 35 35 34 34 33 33 33 34 35 36 38 39 39 38 37 35 33 32 30 29 28 28 28 28 28 27 25 24 23 23 22 23 23 24 26 27 27 27 26 25 24 24 24 23 23 22 22 23 23 24 25 25 25 25 25 25 25 25 25 25 24 23 22 22 23
35 36 35 35 35 35 34 33 33 33 33 34 35 36 37 38 38 38 37 35 33 32 31 30 29 29 29 29 28 27 26 25 23 23 22 22 23 25 26 27 27 26 26 25 24 24 23 23 22 22 22 23 23 24 25 25 26 26 26 26 26 25 25 26 26 26 26 26 25
36 36 35 35 35 35 34 33 33 33 33 33 34 35 36 37 38 38 36 35 33 32 32 31 30 30 30 30 29 28 26 24 23 22 22 22 23 25 26 27 27 26 25 24 24 24 23 23 22 21 21 21 22 23 23 24 25 26 26 26 25 25 25 26 27 28 29 28 27
36 36 35 35 35 35 34 33 33 32 32 32 33 34 36 37 38 38 37 35 34 33 33 32 31 31 31 31 29 28 26 24 23 22 22 22 23 25 26 27 27 26 25 24 24 24 23 23 22 21 21 21 21 22 23 24 25 25 25 25 24 24 25 26 28 29 29 28 25
36 36 36 36 35 35 34 33 32 31 31 31 32 34 35 37 38 38 37 36 35 34 33 33 32 32 32 31 29 28 26 24 23 22 22 23 23 25 26 26 26 25 24 24 24 24 23 23 22 21 21 21 21 22 23 24 24 25 25 25 24 25 25 27 28 29 27 25 24
36 36 36 36 35 35 34 33 32 31 31 31 32 33 35 37 38 39 38 36 35 35 34 33 33 33 32 31 29 28 26 25 23 23 22 23 23 25 26 26 26 25 24 24 24 23 23 22 22 21 21 21 21 22 22 23 24 25 25 26 26 26 27 28 28 26 23 22 22
36 36 36 36 36 35 34 32 32 31 30 30 31 33 35 37 38 38 37 37 36 35 35 34 34 33 32 31 29 28 26 25 23 23 22 22 23 24 25 26 26 25 24 24 23 23 23 22 22 21 21 21 21 21 22 23 24 25 27 27 28 28 28 27 25 22 21 20 20
36 36 36 36 36 34 33 32 31 30 30 29 30 33 35 37 38 38 37 37 37 36 36 36 35 34 33 31 29 28 26 25 23 23 22 22 23 24 25 26 26 25 24 24 23 23 23 22 22 21 21 21 21 21 22 24 25 27 28 29 29 28 26 24 21 20 19 19 19
36 36 36 36 35 34 32 31 30 29 29 29 31 32 35 37 38 38 38 38 38 37 37 36 35 34 32 31 29 27 26 24 23 23 23 23 23 24 25 26 25 25 24 23 23 23 22 22 22 21 21 21 21 22 24 25 27 28 28 29 28 26 24 21 18 17 17 18 19
36 35 35 34 33 32 31 30 29 29 29 29 31 32 34 36 38 39 39 39 38 37 37 36 35 33 32 30 29 27 26 25 24 23 23 23 23 24 25 25 25 24 24 23 23 22 22 22 21 21 21 22 23 24 25 27 28 28 29 28 27 24 21 17 15 15 16 17 19
34 33 33 32 31 30 29 28 28 28 29 29 30 32 34 36 38 39 39 39 38 38 37 36 35 34 32 31 29 28 26 25 24 23 22 22 23 24 24 25 25 24 23 23 23 22 22 21 21 21 22 22 24 25 26 27 28 28 28 28 26 22 18 14 13 14 15 17 19
31 31 31 30 29 28 28 27 27 27 28 29 30 31 33 36 37 38 39 39 39 38 38 36 35 34 32 31 29 27 26 25 23 23 22 22 23 23 24 24 25 24 23 23 22 22 22 21 21 21 22 23 25 26 27 27 27 28 28 27 25 20 16 13 13 14 15 17 19
29 28 28 28 28 27 27 27 27 27 27 27 28 30 32 35 37 38 39 40 40 39 38 37 35 34 32 30 28 26 25 24 23 22 22 22 22 23 24 24 25 24 23 23 22 22 22 21 21 21 22 24 25 26 26 27 27 27 27 26 23 18 14 12 12 14 16 18 19
27 26 26 27 27 28 28 28 28 27 26 26 27 29 32 34 37 38 40 40 40 39 38 36 35 33 31 29 27 26 25 24 23 22 22 22 22 23 24 24 25 24 23 22 22 22 21 21 21 21 22 23 25 25 26 26 27 26 26 24 21 17 14 12 12 14 16 18 19
26 26 26 27 28 29 29 30 29 28 27 27 27 28 31 33 36 38 39 40 39 38 37 35 34 32 30 28 27 26 25 24 23 23 22 22 22 23 23 24 25 24 23 22 22 22 21 21 21 21 22 23 24 25 25 26 26 25 24 22 19 16 13 12 12 14 17 19 20
26 27 27 28 29 30 30 30 29 29 28 28 28 28 29 32 34 37 39 39 39 38 36 35 33 31 30 28 27 26 25 24 24 23 23 22 22 23 23 24 25 24 23 22 22 21 21 21 21 21 22 23 24 24 25 25 24 24 23 20 17 14 13 12 13 15 17 19 20
Wind_Direction
264 263 261 258 256 253 251 250 249 249 250 250 251 252 252 253 253 254 256 257 257 258 259 260 261 261 261 260 259 260 261 263 265 267 269 270 272 273 274 275 276 278 279 281 282 283 285 286 287 287 288 290 291 292 294 295 296 296 295 295 295 294 293 291 290 289 287 285 284
267 265 262 259 256 253 251 249 248 248 248 249 250 251 252 252 253 254 255 256 257 258 258 259 259 259 259 258 258 259 261 263 265 267 268 270 271 273 273 274 276 277 278 280 281 282 284 285 285 286 288 289 291 292 294 295 296 296 295 295 295 295 294 292 292 292 291 289 288
268 266 263 260 257 254 251 249 248 247 248 249 249 250 251 251 252 253 254 255 256 257 257 257 257 257 257 257 258 259 260 263 264 266 267 269 271 271 272 273 275 276 277 278 280 281 283 284 285 286 287 289 291 292 294 296 296 296 296 296 296 295 294 294 294 294 293 292 291
268 266 264 262 259 255 253 251 249 248 248 249 249 250 250 251 251 252 253 254 255 255 255 255 255 256 256 256 257 258 260 262 263 265 266 269 270 271 272 273 274 275 276 277 279 280 282 283 284 285 287 289 290 292 294 296 296 296 296 297 296 296 295 295 296 295 295 294 293
269 268 266 264 262 259 256 253 251 249 249 249 249 249 250 250 250 251 252 253 253 254 254 255 254 254 255 256 257 258 259 260 262 264 266 268 269 270 271 272 273 274 275 277 278 279 281 282 283 284 286 288 290 292 294 296 296 296 296 297 296 296 296 296 297 296 296 295 295
269 269 268 265 263 259 256 253 250 249 248 248 248 248 249 249 250 250 251 253 254 254 254 254 253 253 254 255 256 257 259 260 261 263 266 267 268 269 270 271 272 273 275 276 277 279 280 281 282 284 286 287 289 292 294 295 295 296 296 296 297 297 297 297 297 297 297 296 295
269 268 267 265 262 259 255 252 250 248 247 246 247 247 248 249 249 250 251 253 254 253 253 252 252 253 254 255 256 257 258 260 261 264 266 267 267 268 269 270 271 272 274 275 277 278 279 281 282 283 285 287 289 291 293 294 295 295 296 297 297 298 298 298 298 298 297 297 297
269 267 266 265 263 260 256 253 249 247 246 246 246 247 247 248 249 250 251 252 253 252 252 251 251 252 253 254 255 256 258 259 262 265 266 266 267 268 269 269 270 272 273 275 276 278 279 280 281 283 285 286 288 290 293 294 294 295 296 297 298 299 299 299 300 300 299 299 299
269 268 266 265 262 260 256 253 249 247 246 246 246 246 247 248 248 249 250 251 252 252 251 251 251 251 252 253 254 256 257 259 263 266 266 266 267 267 268 269 270 271 273 274 276 277 278 279 280 282 284 286 288 290 292 293 294 294 296 297 299 300 300 301 301 301 301 301 301
270 270 268 266 263 260 257 253 249 247 246 245 246 246 246 247 247 248 249 251 251 251 250 250 250 250 251 252 254 255 257 260 264 266 266 265 266 268 269 270 270 272 273 274 275 277 278 279 280 282 284 285 287 289 291 292 293 294 296 297 299 300 300 301 302 302 303 303 303
272 272 270 268 266 262 258 253 250 247 245 244 244 244 245 245 246 247 249 250 250 250 250 249 249 249 250 252 253 254 257 262 265 266 265 265 267 269 270 270 271 272 273 274 275 276 277 278 280 282 283 285 286 288 290 291 292 293 295 297 298 299 300 302 303 304 304 304 304
273 273 271 269 267 263 259 255 251 247 245 243 243 243 243 244 245 246 248 249 249 249 249 249 248 248 249 251 252 254 258 263 265 265 264 266 268 269 270 271 271 272 273 274 275 276 277 278 279 281 283 284 285 287 289 291 292 293 294 296 297 298 300 302 304 305 305 305 304
273 272 271 269 266 263 260 256 252 248 245 243 242 242 242 243 244 245 247 248 249 249 248 248 247 248 248 249 250 253 258 263 264 264 264 266 269 270 271 271 272 272 273 274 274 275 276 277 279 280 282 284 285 287 288 290 291 292 294 295 296 298 300 303 305 306 305 305 304
273 272 271 269 267 264 260 257 253 249 246 243 242 241 241 242 243 245 246 247 248 248 247 246 246 247 247 248 249 253 259 263 263 263 264 267 269 271 271 271 272 272 273 273 274 274 275 276 278 280 281 283 285 287 288 289 290 292 293 295 296 298 300 302 304 305 305 304 304
272 271 271 269 267 264 260 257 253 249 246 243 241 240 240 241 242 244 245 247 247 247 246 245 245 245 246 246 249 254 260 262 262 263 264 267 270 271 272 272 272 272 272 273 273 274 274 276 277 279 281 283 285 287 288 289 290 292 293 294 296 297 299 302 303 304 304 304 304
272 272 271 269 267 264 261 257 253 250 246 243 241 239 239 240 241 243 245 246 246 246 245 244 244 244 244 244 249 255 260 261 262 262 265 268 270 271 272 271 271 271 271 272 272 273 274 275 277 279 281 283 285 287 288 290 290 291 293 294 295 297 299 300 302 303 303 303 303
273 273 271 270 268 265 262 258 254 250 246 243 240 238 238 239 240 242 244 245 246 245 244 243 243 242 241 243 249 255 259 260 261 263 265 268 270 271 271 270 270 270 270 270 271 272 273 275 277 279 281 283 285 287 288 290 291 292 293 294 295 296 297 299 300 301 302 302 302
275 274 273 272 270 268 264 260 256 252 247 244 240 238 237 238 240 242 244 245 245 245 244 242 240 239 240 244 250 255 258 260 261 263 266 269 270 270 270 269 269 269 269 270 271 272 273 275 276 278 280 283 285 287 289 290 291 292 293 294 294 295 296 297 299 299 299 300 300
277 276 275 274 273 271 267 263 258 254 249 245 241 239 237 238 239 241 243 245 245 244 243 240 238 237 239 244 250 255 257 259 260 262 265 268 269 269 269 269 268 268 269 269 270 271 273 275 276 278 280 282 285 287 289 290 292 293 294 294 294 295 296 296 296 296 296 297 299
279 279 278 278 276 273 270 266 261 256 252 247 243 239 238 238 239 241 243 244 245 244 241 238 235 235 238 244 250 254 256 258 259 261 264 266 268 269 269 268 268 268 268 269 270 271 273 274 276 278 280 282 284 287 289 291 292 293 294 294 295 295 295 294 294 293 293 296 300
283 282 281 280 278 275 272 268 264 259 254 249 244 240 238 238 239 241 243 244 244 242 239 235 233 234 239 244 250 253 255 256 258 260 263 265 267 268 268 268 267 267 267 268 269 271 272 274 276 278 280 282 284 287 289 291 293 294 294 294 294 294 293 292 291 291 293 297 302
286 284 283 280 278 276 273 269 265 260 255 250 245 241 238 237 238 240 242 243 243 240 237 233 232 234 239 245 250 253 254 255 257 259 261 264 266 267 268 267 266 266 267 267 269 270 272 274 276 277 280 282 284 287 289 291 293 293 293 293 292 291 290 289 289 291 294 299 305
287 285 283 281 279 277 274 270 265 261 256 251 246 241 238 237 238 239 241 242 241 238 235 232 232 235 240 245 249 251 253 253 255 257 260 263 265 266 267 266 266 266 266 267 269 270 272 273 275 277 279 282 285 287 289 290 291 292 292 292 291 290 289 290 291 294 297 302 306
288 286 284 283 280 278 274 271 266 261 256 251 246 241 238 236 237 238 240 240 239 237 233 231 232 235 240 245 248 250 251 252 254 256 259 263 265 266 266 266 265 266 266 267 268 270 271 273 275 277 279 281 284 286 287 288 289 291 292 293 293 293 293 294 296 298 301 304 307
289 287 285 284 281 279 276 271 267 262 257 252 246 241 238 236 236 237 238 239 238 235 232 231 232 235 240 244 247 248 249 251 253 256 259 262 264 265 265 265 265 265 266 267 268 270 271 273 275 277 279 281 283 284 286 287 290 293 296 298 299 299 299 300 301 303 305 307 310
291 289 287 285 282 279 276 272 268 264 258 253 247 241 237 235 235 236 237 238 236 234 231 230 232 235 240 243 246 247 248 250 252 255 259 262 264 264 265 265 265 265 266 267 268 269 271 273 275 278 281 283 285 286 288 291 295 298 301 302 302 303 303 304 305 307 308 310 311
294 291 288 286 283 280 277 274 270 265 259 253 247 241 237 234 234 235 236 236 235 232 230 230 232 235 239 243 245 247 248 250 252 255 258 261 262 263 264 264 264 265 266 267 268 269 270 272 274 277 280 284 287 290 292 295 298 300 301 301 302 303 304 305 306 307 307 307 307
297 293 290 286 283 280 278 274 270 265 259 253 247 241 237 234 233 233 234 234 233 231 229 229 232 235 239 242 245 246 248 250 252 255 257 260 262 263 263 263 264 264 266 267 267 269 270 271 273 275 278 281 285 288 290 291 293 294 296 298 300 301 302 301 301 300 299 299 302
300 295 291 286 283 281 278 274 270 265 260 254 248 242 237 234 232 232 232 232 231 229 229 229 232 235 239 242 244 246 248 250 252 254 256 258 260 262 263 263 264 264 265 266 267 268 269 271 273 275 277 278 280 281 283 285 288 291 293 295 296 295 294 292 290 289 291 295 300
302 296 291 287 284 281 278 274 271 267 262 256 249 243 237 234 232 231 231 230 229 229 229 230 233 236 239 242 244 246 247 249 250 252 254 256 259 261 262 263 264 264 264 265 265 267 268 270 272 274 276 277 278 279 281 285 288 290 291 290 288 285 283 281 281 284 289 295 299
302 297 292 288 285 281 278 275 272 267 262 256 249 243 237 233 231 230 230 229 229 229 230 231 233 236 239 241 243 245 246 248 249 251 253 256 259 261 262 263 263 264 263 264 264 266 268 270 272 274 276 277 278 280 282 284 285 285 285 283 281 278 277 278 281 286 291 296 298
302 297 293 289 285 282 279 275 271 266 262 256 250 243 237 233 231 230 229 229 229 229 230 231 233 235 238 240 242 244 245 247 248 250 252 255 258 261 262 263 263 263 263 263 264 266 268 270 272 274 276 278 279 279 280 280 281 281 280 280 279 279 280 283 286 290 293 294 295
301 298 294 291 287 283 279 274 270 266 261 256 249 243 237 233 231 229 228 228 228 229 230 231 233 235 237 239 241 243 245 246 247 249 251 254 257 260 261 262 262 262 263 263 264 266 268 270 273 274 276 278 278 278 278 278 278 279 281 282 284 286 287 288 289 289 290 292 295
301 298 295 292 288 284 279 275 271 266 261 255 249 243 237 233 230 228 227 227 228 229 231 232 234 235 237 238 240 242 244 245 246 248 250 253 256 258 260 261 262 262 263 263 264 266 268 270 272 275 276 277 277 277 277 278 279 281 284 287 289 291 290 287 286 286 289 293 299
301 299 297 293 289 285 280 276 271 266 260 255 249 242 237 232 229 227 226 227 229 230 231 232 233 235 236 237 239 241 242 244 245 246 249 252 255 257 260 262 262 263 263 263 264 266 268 270 272 274 276 276 276 277 278 280 282 284 287 290 291 291 288 283 282 285 291 297 303
301 300 297 295 291 287 282 277 272 266 260 255 249 242 236 232 229 227 226 227 229 230 231 232 232 233 234 235 237 239 241 242 244 246 248 252 255 257 260 262 262 263 262 263 264 265 267 269 272 274 275 276 276 278 280 282 284 286 288 290 291 289 285 280 282 287 294 300 305
301 300 298 295 292 288 283 278 272 266 260 254 248 242 236 231 228 226 226 227 228 229 230 231 231 232 233 235 237 239 241 242 244 246 248 251 254 257 259 261 262 262 262 263 264 266 267 269 271 273 275 276 277 278 281 283 285 286 288 289 289 287 282 278 282 290 297 303 306
301 299 296 293 290 286 282 277 272 267 261 255 249 242 236 231 227 225 225 226 227 228 230 230 231 232 233 235 237 239 241 242 243 245 248 250 253 256 258 260 261 262 262 263 264 265 267 269 271 273 274 276 277 279 281 283 285 286 287 288 288 284 278 276 282 292 299 305 308
298 295 292 289 286 283 279 276 272 269 264 257 250 243 236 231 227 225 225 226 228 229 230 231 231 232 233 235 237 238 240 240 241 244 246 249 252 255 257 259 261 262 262 263 264 265 267 269 270 272 273 275 277 280 282 284 285 286 287 288 286 281 274 273 283 294 302 306 309
292 289 286 284 282 280 278 275 274 271 266 260 252 244 236 231 227 225 225 226 228 229 230 231 232 232 233 234 236 237 238 239 240 242 245 248 251 254 256 259 261 262 262 263 263 265 267 268 270 271 273 275 277 279 281 283 284 285 286 287 285 279 273 275 286 297 304 307 309
288 285 284 283 281 279 278 277 276 273 268 261 253 245 238 232 228 225 225 226 227 229 230 231 231 231 232 233 235 236 237 238 239 241 244 247 250 253 256 259 261 263 263 263 263 265 266 268 270 271 273 275 277 279 280 282 283 285 286 287 284 280 277 281 292 301 305 307 309
Height
1469 1470 1471 1472 1473 1475 1476 1477 1478 1479 1480 1481 1482 1483 1483 1484 1484 1485 1485 1486 1486 1486 1487 1488 1488 1489 1489 1489 1489 1489 1489 1488 1488 1488 1488 1488 1488 1488 1488 1488 1488 1488 1488 1488 1488 1487 1487 1487 1486 1485 1485 1484 1484 1483 1482 1482 1481 1480 1480 1479 1478 1478 1477 1476 1475 1475 1475 1474 1473
1467 1467 1468 1469 1471 1472 1473 1474 1475 1476 1477 1478 1479 1480 1481 1481 1482 1482 1483 1483 1484 1484 1485 1486 1486 1487 1487 1487 1487 1487 1487 1487 1487 1487 1486 1486 1486 1486 1486 1486 1486 1486 1486 1486 1486 1486 1485 1485 1484 1484 1483 1483 1482 1481 1481 1480 1479 1479 1478 1477 1477 1476 1475 1474 1473 1473 1473 1472 1472
1464 1465 1465 1466 1467 1468 1469 1471 1472 1473 1474 1475 1477 1478 1478 1479 1479 1480 1481 1481 1482 1483 1483 1483 1484 1485 1485 1485 1485 1485 1485 1485 1485 1485 1484 1484 1484 1484 1484 1484 1484 1484 1484 1484 1484 1484 1483 1483 1483 1482 1481 1481 1480 1479 1479 1478 1478 1477 1476 1475 1475 1474 1473 1473 1472 1471 1471 1470 1469
1461 1462 1462 1463 1463 1465 1466 1467 1469 1470 1472 1473 1474 1475 1476 1476 1477 1478 1478 1479 1480 1480 1481 1481 1482 1483 1483 1483 1483 1483 1483 1483 1483 1483 1483 1483 1483 1483 1483 1483 1483 1483 1483 1482 1482 1482 1482 1481 1481 1480 1479 1479 1478 1478 1477 1477 1476 1475 1474 1473 1473 1472 1471 1471 1470 1469 1469 1468 1468
1458 1458 1459 1459 1460 1462 1463 1465 1466 1468 1469 1471 1472 1472 1473 1474 1474 1475 1476 1477 1477 1478 1478 1479 1480 1480 1481 1481 1481 1481 1481 1481 1481 1481 1481 1481 1481 1481 1481 1481 1481 1481 1481 1481 1480 1480 1480 1479 1479 1478 1478 1477 1477 1476 1475 1475 1474 1473 1472 1472 1471 1470 1469 1469 1468 1468 1467 1466 1465
1455 1455 1456 1457 1458 1459 1461 1462 1464 1465 1467 1468 1468 1469 1470 1471 1472 1473 1473 1474 1475 1476 1477 1477 1478 1478 1478 1479 1479 1479 1479 1479 1479 1479 1479 1479 1479 1479 1479 1479 1479 1479 1479 1479 1478 1478 1478 1477 1477 1476 1476 1475 1475 1474 1474 1473 1472 1471 1470 1470 1469 1468 1468 1467 1466 1466 1465 1464 1463
1452 1453 1453 1454 1455 1457 1458 1459 1461 1463 1464 1465 1465 1466 1467 1468 1469 1470 1471 1472 1473 1474 1474 1475 1475 1476 1476 1477 1477 1477 1477 1477 1478 1478 1478 1478 1477 1477 1477 1477 1477 1477 1477 1477 1477 1476 1476 1475 1475 1474 1474 1473 1473 1472 1472 1471 1470 1469 1468 1468 1467 1467 1466 1465 1464 1464 1463 1462 1462
1449 1450 1450 1452 1453 1454 1455 1457 1458 1459 1460 1461 1462 1463 1465 1466 1467 1468 1469 1470 1470 1471 1472 1472 1473 1473 1474 1474 1475 1475 1475 1476 1476 1476 1476 1476 1475 1475 1475 1475 1475 1475 1475 1475 1475 1474 1474 1473 1473 1472 1472 1472 1471 1470 1470 1469 1468 1468 1467 1466 1465 1465 1464 1463 1463 1462 1461 1460 1459
1446 1447 1448 1449 1450 1451 1453 1454 1455 1456 1457 1458 1460 1461 1463 1464 1465 1466 1467 1467 1468 1468 1469 1470 1471 1471 1472 1472 1473 1473 1473 1474 1474 1474 1474 1473 1473 1473 1473 1473 1473 1473 1473 1473 1473 1473 1472 1471 1471 1470 1470 1470 1469 1468 1468 1468 1467 1466 1465 1464 1463 1463 1462 1462 1461 1460 1459 1458 1458
1443 1444 1445 1446 1447 1448 1450 1451 1452 1453 1454 1456 1457 1459 1460 1461 1462 1463 1464 1465 1465 1466 1467 1468 1468 1469 1469 1470 1470 1471 1471 1472 1472 1472 1472 1472 1472 1472 1472 1471 1471 1471 1471 1471 1471 1470 1470 1469 1469 1468 1468 1468 1467 1467 1466 1466 1465 1464 1463 1462 1461 1461 1460 1460 1459 1458 1457 1457 1455
1440 1442 1443 1443 1445 1446 1448 1448 1449 1450 1452 1453 1454 1456 1458 1458 1459 1460 1461 1462 1463 1463 1464 1465 1466 1467 1467 1468 1468 1469 1469 1470 1470 1470 1469 1469 1469 1469 1469 1469 1469 1469 1469 1469 1469 1468 1468 1467 1467 1467 1466 1466 1465 1465 1464 1464 1463 1462 1461 1460 1460 1459 1458 1458 1457 1457 1456 1454 1453
1438 1439 1440 1441 1443 1444 1445 1445 1446 1447 1448 1450 1451 1453 1454 1456 1457 1458 1459 1459 1460 1461 1462 1463 1464 1464 1465 1466 1466 1467 1468 1468 1468 1468 1468 1468 1468 1468 1467 1467 1467 1467 1467 1467 1467 1466 1466 1465 1465 1465 1464 1464 1463 1463 1462 1462 1461 1460 1459 1458 1458 1457 1456 1455 1455 1454 1454 1453 1452
1436 1436 1437 1438 1440 1441 1442 1442 1443 1444 1445 1447 1448 1450 1451 1453 1454 1455 1456 1457 1458 1458 1460 1461 1461 1462 1463 1463 1464 1465 1465 1466 1466 1465 1465 1465 1465 1465 1465 1465 1465 1465 1465 1465 1465 1464 1464 1463 1463 1463 1462 1462 1462 1461 1460 1460 1459 1458 1457 1457 1456 1455 1454 1453 1453 1453 1452 1451 1450
1433 1434 1434 1436 1437 1438 1438 1439 1440 1441 1442 1444 1445 1447 1449 1450 1451 1452 1453 1454 1455 1456 1457 1458 1459 1460 1461 1461 1462 1463 1463 1463 1463 1463 1463 1463 1463 1463 1463 1463 1463 1463 1463 1463 1463 1462 1462 1461 1461 1461 1460 1460 1459 1459 1458 1458 1457 1456 1455 1454 1454 1453 1452 1452 1451 1451 1450 1449 1448
1431 1431 1432 1433 1434 1435 1435 1436 1437 1438 1439 1441 1442 1444 1446 1447 1448 1449 1450 1451 1453 1453 1455 1456 1457 1458 1458 1459 1460 1461 1461 1461 1461 1461 1461 1461 1461 1461 1461 1461 1461 1461 1461 1461 1460 1460 1460 1459 1459 1459 1458 1458 1458 1457 1457 1456 1455 1454 1453 1453 1452 1451 1450 1450 1449 1448 1448 1447 1446
1428 1428 1429 1430 1431 1432 1433 1433 1434 1435 1436 1438 1439 1441 1443 1444 1445 1447 1448 1449 1450 1451 1452 1453 1454 1455 1456 1457 1458 1458 1458 1458 1458 1458 1459 1459 1459 1459 1459 1459 1459 1459 1458 1458 1458 1458 1458 1458 1457 1457 1456 1456 1455 1455 1454 1454 1453 1452 1452 1451 1450 1449 1448 1448 1447 1447 1446 1445 1444
1425 1425 1426 1427 1428 1428 1429 1430 1431 1432 1433 1435 1436 1438 1440 1441 1443 1444 1445 1446 1448 1448 1450 1451 1452 1453 1454 1455 1455 1456 1456 1456 1456 1456 1457 1457 1457 1457 1457 1457 1457 1457 1457 1456 1456 1456 1456 1456 1455 1455 1454 1454 1453 1453 1452 1452 1451 1450 1450 1449 1448 1447 1447 1446 1445 1445 1444 1443 1442
1422 1423 1423 1424 1425 1426 1427 1428 1429 1430 1431 1432 1434 1435 1437 1439 1440 1442 1443 1444 1445 1446 1448 1449 1450 1451 1452 1452 1453 1453 1453 1453 1453 1454 1454 1454 1454 1454 1454 1454 1454 1454 1454 1454 1454 1454 1453 1453 1453 1453 1452 1452 1451 1451 1450 1450 1449 1448 1448 1447 1446 1445 1445 1444 1443 1443 1442 1441 1441
1420 1420 1421 1421 1422 1423 1424 1425 1426 1428 1429 1430 1432 1433 1435 1437 1438 1440 1441 1442 1443 1444 1446 1447 1448 1448 1449 1450 1450 1450 1451 1451 1451 1452 1452 1452 1452 1452 1452 1452 1452 1452 1452 1452 1452 1452 1452 1451 1451 1451 1450 1450 1449 1449 1448 1448 1447 1446 1446 1445 1444 1443 1443 1442 1442 1441 1441 1440 1439
1418 1418 1418 1419 1420 1421 1422 1423 1424 1426 1427 1428 1429 1431 1433 1435 1436 1438 1439 1440 1441 1443 1443 1444 1445 1446 1447 1447 1448 1448 1448 1448 1449 1449 1449 1450 1450 1450 1450 1450 1450 1450 1450 1449 1449 1449 1449 1449 1449 1449 1448 1448 1447 1447 1446 1446 1445 1444 1444 1443 1442 1442 1441 1440 1440 1439 1439 1438 1437
1416 1416 1416 1417 1418 1419 1420 1422 1423 1424 1425 1426 1427 1429 1431 1433 1434 1436 1437 1438 1439 1440 1441 1442 1443 1443 1444 1445 1445 1445 1446 1446 1446 1447 1447 1447 1447 1448 1448 1448 1448 1448 1447 1447 1447 1447 1447 1447 1447 1447 1446 1446 1445 1445 1444 1444 1443 1443 1442 1441 1440 1440 1439 1439 1438 1438 1437 1436 1435
1414 1414 1415 1416 1416 1417 1418 1419 1421 1422 1423 1423 1425 1427 1429 1431 1432 1434 1435 1436 1437 1438 1438 1439 1440 1441 1442 1442 1443 1443 1443 1443 1444 1444 1444 1445 1445 1445 1445 1445 1445 1445 1445 1445 1445 1445 1445 1445 1445 1445 1444 1444 1443 1443 1442 1442 1441 1440 1440 1439 1438 1438 1437 1437 1436 1436 1435 1434 1433
1413 1413 1413 1414 1415 1415 1416 1417 1418 1419 1420 1421 1423 1424 1426 1428 1430 1432 1433 1434 1435 1435 1436 1437 1438 1438 1439 1440 1440 1441 1441 1441 1441 1442 1442 1442 1443 1443 1443 1443 1443 1443 1443 1443 1443 1443 1443 1443 1443 1443 1442 1442 1441 1441 1440 1440 1439 1438 1438 1437 1437 1436 1435 1435 1434 1433 1433 1432 1431
1412 1412 1412 1412 1413 1413 1414 1415 1416 1416 1417 1418 1420 1421 1423 1425 1427 1429 1430 1431 1432 1433 1433 1434 1435 1436 1437 1438 1438 1438 1438 1438 1439 1439 1440 1440 1440 1441 1441 1441 1441 1440 1441 1441 1441 1441 1441 1441 1441 1441 1440 1440 1439 1439 1438 1438 1437 1437 1436 1435 1434 1433 1433 1432 1432 1431 1431 1430 1429
1410 1410 1410 1410 1410 1411 1411 1412 1413 1413 1414 1415 1417 1419 1421 1423 1424 1426 1428 1428 1429 1430 1431 1432 1433 1433 1434 1435 1435 1435 1436 1436 1436 1437 1437 1438 1438 1438 1438 1438 1438 1438 1438 1439 1439 1439 1439 1439 1439 1438 1438 1438 1438 1437 1437 1436 1435 1434 1433 1433 1432 1431 1430 1430 1429 1429 1428 1428 1427
1408 1408 1408 1408 1408 1408 1409 1409 1410 1411 1412 1413 1414 1416 1418 1420 1422 1423 1425 1426 1427 1428 1428 1429 1430 1431 1432 1432 1432 1433 1433 1433 1434 1434 1435 1435 1436 1436 1436 1436 1436 1436 1436 1437 1438 1438 1438 1437 1437 1437 1436 1435 1435 1434 1433 1433 1432 1432 1431 1430 1430 1429 1428 1427 1427 1426 1426 1425 1424
1405 1405 1405 1405 1405 1405 1406 1406 1407 1408 1409 1410 1411 1413 1415 1417 1419 1420 1422 1423 1424 1425 1425 1426 1427 1428 1429 1429 1429 1430 1430 1431 1432 1432 1433 1433 1433 1433 1434 1434 1434 1434 1434 1435 1435 1436 1435 1435 1435 1435 1434 1434 1433 1432 1432 1431 1430 1430 1429 1429 1428 1427 1427 1426 1425 1424 1423 1423 1423
1403 1403 1403 1403 1403 1403 1403 1404 1404 1405 1406 1407 1408 1410 1412 1414 1416 1418 1419 1420 1421 1422 1423 1423 1424 1425 1426 1426 1427 1428 1428 1429 1429 1430 1430 1431 1431 1431 1432 1432 1432 1432 1433 1433 1433 1433 1433 1433 1433 1433 1433 1433 1432 1431 1431 1430 1429 1429 1428 1427 1427 1426 1426 1425 1424 1423 1423 1422 1421
1400 1400 1400 1399 1399 1400 1400 1401 1401 1402 1403 1404 1406 1408 1410 1411 1413 1414 1416 1417 1418 1418 1419 1420 1421 1422 1423 1423 1424 1425 1426 1426 1427 1427 1428 1428 1429 1429 1429 1429 1430 1430 1431 1431 1431 1431 1431 1431 1431 1431 1431 1431 1431 1430 1429 1429 1428 1427 1427 1426 1425 1425 1425 1424 1423 1423 1422 1420 1420
1398 1397 1397 1396 1397 1397 1397 1398 1398 1399 1401 1402 1403 1405 1407 1408 1410 1411 1413 1414 1414 1415 1416 1417 1418 1419 1420 1421 1422 1423 1423 1424 1424 1425 1425 1426 1426 1427 1427 1428 1428 1428 1429 1429 1429 1429 1429 1429 1429 1429 1429 1429 1429 1428 1428 1427 1426 1426 1425 1424 1424 1424 1423 1423 1422 1421 1420 1419 1418
1395 1394 1393 1393 1393 1394 1394 1395 1396 1397 1398 1399 1401 1402 1403 1405 1406 1408 1409 1411 1412 1413 1414 1415 1416 1417 1418 1418 1419 1420 1421 1422 1422 1423 1423 1424 1424 1425 1425 1425 1426 1426 1427 1427 1427 1427 1427 1427 1427 1427 1427 1428 1427 1427 1426 1425 1425 1424 1423 1423 1422 1422 1421 1420 1419 1419 1418 1418 1417
1392 1391 1391 1391 1391 1391 1392 1393 1393 1394 1396 1397 1398 1399 1400 1402 1403 1405 1407 1408 1409 1410 1411 1412 1413 1414 1415 1416 1417 1418 1418 1419 1420 1420 1421 1422 1422 1423 1423 1423 1423 1424 1424 1425 1425 1425 1425 1425 1425 1425 1425 1425 1425 1425 1424 1424 1423 1422 1422 1421 1420 1419 1419 1418 1418 1417 1417 1416 1415
1390 1389 1388 1388 1388 1388 1389 1390 1391 1392 1393 1394 1395 1396 1397 1398 1401 1403 1404 1405 1406 1407 1408 1408 1410 1411 1412 1413 1414 1415 1416 1417 1417 1418 1419 1419 1420 1420 1420 1421 1421 1422 1423 1423 1423 1423 1423 1423 1423 1423 1423 1423 1423 1423 1422 1422 1421 1420 1419 1418 1418 1418 1417 1417 1416 1416 1415 1414 1413
1388 1387 1386 1386 1386 1386 1387 1388 1388 1390 1390 1391 1392 1393 1394 1396 1398 1399 1401 1402 1403 1404 1405 1406 1407 1409 1410 1411 1412 1413 1414 1414 1415 1416 1416 1417 1418 1418 1418 1418 1419 1420 1420 1421 1421 1421 1421 1421 1421 1421 1421 1422 1421 1421 1420 1419 1418 1418 1417 1417 1416 1416 1415 1415 1414 1414 1413 1413 1412
1385 1384 1384 1383 1384 1384 1384 1385 1386 1387 1387 1388 1388 1389 1391 1393 1394 1396 1398 1399 1401 1402 1403 1404 1405 1407 1408 1409 1410 1411 1412 1412 1413 1413 1414 1415 1415 1416 1416 1416 1417 1418 1418 1418 1419 1419 1419 1419 1419 1419 1419 1419 1419 1418 1418 1417 1416 1416 1415 1414 1414 1414 1413 1413 1413 1413 1412 1411 1410
1383 1382 1382 1382 1382 1382 1382 1383 1383 1383 1384 1384 1385 1386 1388 1389 1391 1393 1395 1397 1398 1399 1400 1402 1403 1404 1405 1406 1407 1408 1409 1410 1411 1411 1412 1413 1413 1413 1414 1414 1415 1416 1416 1417 1417 1417 1417 1417 1417 1417 1418 1417 1417 1416 1416 1415 1414 1413 1413 1413 1412 1412 1412 1412 1411 1411 1410 1410 1409
1381 1380 1380 1380 1380 1380 1380 1380 1380 1380 1380 1381 1382 1383 1385 1387 1389 1391 1393 1394 1395 1396 1397 1399 1400 1402 1403 1404 1405 1406 1407 1408 1409 1409 1410 1411 1411 1411 1412 1412 1413 1413 1414 1414 1415 1415 1415 1415 1415 1415 1415 1415 1414 1414 1413 1413 1412 1412 1411 1411 1410 1410 1410 1410 1410 1409 1409 1408 1407
1378 1378 1378 1378 1378 1377 1377 1377 1377 1377 1377 1378 1379 1380 1382 1384 1386 1388 1390 1391 1392 1393 1394 1396 1398 1399 1401 1402 1403 1404 1405 1406 1407 1407 1408 1408 1409 1409 1410 1410 1411 1411 1412 1413 1413 1413 1413 1413 1413 1413 1413 1413 1413 1412 1412 1411 1410 1410 1409 1409 1408 1408 1408 1408 1408 1408 1407 1407 1406
1376 1376 1376 1375 1375 1374 1374 1374 1374 1374 1375 1376 1377 1378 1380 1382 1383 1385 1387 1388 1389 1391 1393 1394 1396 1398 1399 1401 1402 1403 1403 1404 1404 1405 1406 1407 1407 1408 1408 1408 1408 1409 1410 1410 1411 1411 1411 1411 1411 1412 1412 1411 1411 1410 1410 1409 1408 1408 1408 1407 1407 1407 1407 1407 1407 1406 1406 1405 1404
1373 1373 1372 1372 1372 1371 1371 1371 1371 1372 1373 1373 1374 1376 1377 1379 1381 1383 1385 1386 1388 1389 1391 1393 1394 1396 1398 1399 1399 1400 1401 1402 1403 1403 1404 1404 1405 1406 1406 1406 1406 1407 1408 1408 1408 1409 1409 1409 1409 1410 1410 1409 1409 1408 1408 1408 1407 1406 1406 1405 1405 1405 1405 1405 1405 1405 1404 1403 1403
1370 1370 1369 1369 1368 1368 1368 1368 1369 1369 1370 1371 1372 1374 1375 1377 1379 1381 1383 1384 1386 1388 1389 1391 1393 1394 1396 1397 1397 1398 1399 1400 1400 1401 1402 1403 1403 1403 1404 1404 1404 1405 1406 1406 1407 1407 1407 1407 1407 1408 1408 1408 1407 1407 1406 1406 1405 1404 1404 1404 1404 1404 1403 1403 1403 1403 1402 1402 1401